Weather History for Daggett-Barstow, CA

Change the Weather History Date:

Thursday, April 11, 2013

  Actual Average Record
Temperature  
Mean Temperature 70 °F -  
Max Temperature 86 °F 78 °F 93 °F (1989)
Min Temperature 57 °F 52 °F 32 °F (1953)
Cooling Degree Days 6    
Growing Degree Days 20 (Base 50)    
Moisture  
Dew Point 30 °F    
Average Humidity 23    
Maximum Humidity 37    
Minimum Humidity 11    
Precipitation  
Precipitation 0.00 in - - ()
Sea Level Pressure  
Sea Level Pressure 29.76 in    
Wind  
Wind Speed 13 mph (West)    
Max Wind Speed 30 mph    
Max Gust Speed 36 mph    
Visibility 10 miles    
Events      
Averages and records for this station are not official NWS values.
T = Trace of Precipitation, MM = Missing Value Source: NWS Daily Summary

Daily Weather History Graph

Daily Weather History Graph

Search for Another Location

Airport:

Trip Planner

Search our weather history database for the weather conditions in past years. The results will help you decide how hot, cold, wet, or windy it might be!

Date:

Astronomy

Apr. 11, 2013 Rise Set
Actual Time 6:20 AM PDT 7:16 PM PDT
Civil Twilight 5:54 AM PDT 7:42 PM PDT
Nautical Twilight 5:23 AM PDT 8:13 PM PDT
Astronomical Twilight 4:52 AM PDT 8:44 PM PDT
Moon 6:57 AM PDT (4/11) 8:50 PM PDT (4/11)
Length of Visible Light 13h 48m
Length of Day
12h 56m
New Moon, 2% of the Moon is Illuminated
Apr 11
New Moon
Apr 18
First Quarter
Apr 25
Full
May 2
Last Quarter
May 9
New

Hourly Weather History & Observations

Time (PDT) Temp. Dew Point Humidity Pressure Visibility Wind Dir Wind Speed Gust Speed Precip Events Conditions
12:50 AM 59.0 °F 25.0 °F 27% 29.93 in 10.0 mi West 11.5 mph - N/A   Clear
1:50 AM 59.0 °F 27.0 °F 29% 29.90 in 10.0 mi West 15.0 mph - N/A   Clear
2:50 AM 59.0 °F 26.1 °F 28% 29.88 in 10.0 mi West 12.7 mph - N/A   Clear
3:50 AM 57.9 °F 25.0 °F 28% 29.85 in 10.0 mi West 13.8 mph - N/A   Clear
4:50 AM 57.9 °F 25.0 °F 28% 29.84 in 10.0 mi WSW 9.2 mph - N/A   Clear
5:50 AM 57.0 °F 27.0 °F 32% 29.82 in 10.0 mi West 6.9 mph - N/A   Clear
7:50 AM 64.9 °F 32.0 °F 29% 29.81 in 10.0 mi WNW 10.4 mph - N/A   Clear
8:50 AM 72.0 °F 33.1 °F 24% 29.79 in 10.0 mi WSW 23.0 mph 32.2 mph N/A   Clear
9:50 AM 75.0 °F 36.0 °F 24% 29.78 in 10.0 mi West 29.9 mph 35.7 mph N/A   Clear
10:50 AM 77.0 °F 35.1 °F 22% 29.79 in 10.0 mi West 24.2 mph 32.2 mph N/A   Clear
11:50 AM 82.0 °F 35.1 °F 18% 29.76 in 10.0 mi West 23.0 mph 28.8 mph N/A   Clear
12:50 PM 82.9 °F 33.1 °F 17% 29.75 in 10.0 mi West 19.6 mph 25.3 mph N/A   Clear
1:50 PM 82.9 °F 30.9 °F 15% 29.73 in 10.0 mi West 9.2 mph - N/A   Clear
2:50 PM 82.9 °F 32.0 °F 16% 29.69 in 10.0 mi West 11.5 mph - N/A   Clear
3:50 PM 84.9 °F 26.1 °F 12% 29.67 in 10.0 mi North 6.9 mph - N/A   Clear
4:50 PM 84.0 °F 24.1 °F 11% 29.65 in 10.0 mi NE 3.5 mph - N/A   Clear
5:50 PM 82.9 °F 23.0 °F 11% 29.65 in 10.0 mi NE 6.9 mph - N/A   Clear
6:50 PM 79.0 °F 24.1 °F 13% 29.65 in 10.0 mi ENE 6.9 mph - N/A   Clear
7:50 PM 73.9 °F 24.1 °F 16% 29.65 in 10.0 mi SE 3.5 mph - N/A   Clear
8:31 PM 75.2 °F 30.2 °F 19% 29.74 in 10.0 mi WSW 19.6 mph 24.2 mph N/A   Clear
8:50 PM 73.0 °F 37.0 °F 27% 29.68 in 10.0 mi West 16.1 mph - N/A   Clear
9:50 PM 71.1 °F 39.0 °F 31% 29.70 in 10.0 mi West 13.8 mph - N/A   Clear
10:50 PM 69.1 °F 39.9 °F 35% 29.72 in 10.0 mi West 11.5 mph - N/A   Clear
11:50 PM 66.0 °F 39.0 °F 37% 29.72 in 10.0 mi West 9.2 mph - N/A   Clear